Location: *
(47.6569°N, 7.4256°E)
Time: 11:25:40
(UTC+00:00)

USA 267 - Pass Details

Date: 14 December 2019
Orbit: 1100 x 1107 km, 123.0° (Epoch: 19 January)

Event Time Altitude Azimuth Distance (km) Brightness Sun altitude
Rises 16:40:41 0° 119° (ESE) 3,908 5.8 -9.9°
Reaches altitude 10° 16:43:09 10° 119° (ESE) 2,953 5.2 -10.3°
Maximum altitude 16:49:41 82° 32° (NNE) 1,115 3.2 -11.3°
Drops below altitude 10° 16:56:14 10° 307° (NW) 2,965 6.0 -12.4°
Sets 16:58:43 0° 306° (NW) 3,925 6.7 -12.8°
